OpenBCM V2.0.3 (Linux)

Packet Radio Mailbox

IZ3LSV

[San Dona' di P. JN]

 Login: GUEST





  
LU1HVK > KEP      13.09.19 07:29l 244 Lines 12026 Bytes #999 (0) @ WW
BID : 31684_LU1HVK
Read: GUEST
Subj: TLE 13 09
Path: IZ3LSV<DB0ERF<DB0RES<ON0AR<GB7CIP<N3HYM<IV3BVK<IK5FKA<LU9HGS<LU1HVK
Sent: 190913/0523Z 31684@LU1HVK.2594.CBA.ARG.SA LinBPQ6.0.18

                         _    _   _ _ _   ___     ___  __
                        | |  | | | / | | | \ \   / / |/ /
                        | |  | | | | | |_| |\ \ / /| ' /
                        | |__| |_| | |  _  | \ V / | . \
                        |_____\___/|_|_| |_|  \_/  |_|\_\

     BBS/NODO - CORDOBA (LEONES-FF87UH) - LU1HVK-4 NODO - LU1HVK-3 APRS

+----------------------------------------------------------------------------+
OSCAR 7
1  7530U 74089B   19255.89194142 -.00000036 +00000-0 +54410-4 0  9991
2  7530 101.7533 222.6979 0011992 179.1376 244.0725 12.53639836051084
OSCAR 11 (UoSAT 2)
1 14781U 84021B   19255.72180914 +.00000054 +00000-0 +12745-4 0  9992
2 14781 097.6075 276.3531 0009506 044.9453 315.2530 14.83105378890515
OSCAR 19 (LUSAT)
1 20442U 90005G   19255.83560775 -.00000002 +00000-0 +15547-4 0  9998
2 20442 098.6533 197.7127 0010619 254.6872 105.3138 14.32932477548654
EYESAT A
1 22825U 93061C   19255.90861731 -.00000005 +00000-0 +16014-4 0  9997
2 22825 098.9098 246.5386 0009459 105.8221 254.4003 14.30066142354001
ITAMSAT
1 22826U 93061D   19255.89019643 -.00000007 +00000-0 +15010-4 0  9990
2 22826 098.9038 246.5004 0010024 095.8229 264.4095 14.30400047354221
RADIO ROSTO
1 23439U 94085A   19255.63450454 -.00000046 +00000-0 -11246-3 0  9999
2 23439 064.8195 337.1453 0145559 096.5537 265.1979 11.27568254017587
JAS 2
1 24278U 96046B   19255.91718452 -.00000054 +00000-0 -19045-4 0  9991
2 24278 098.5503 037.6713 0350642 016.6363 344.5944 13.53092877139211
TECHSAT 1B
1 25397U 98043D   19255.85409621 -.00000021 +00000-0 +98632-5 0  9994
2 25397 098.6928 194.9723 0002075 118.8367 241.3020 14.23670268099912
ISS (ZARYA)
1 25544U 98067A   19256.01324756  .00002742  00000-0  55190-4 0  9990
2 25544  51.6446 285.6588 0008405  34.2020  49.1719 15.50451771188888
PCSAT
1 26931U 01043C   19255.91452393 -.00000021 +00000-0 +23672-4 0  9995
2 26931 067.0510 141.1843 0007464 271.7972 088.2274 14.30551858937235
SAUDISAT 1C
1 27607U 02058C   19255.89127284 -.00000036 +00000-0 +15856-4 0  9999
2 27607 064.5548 146.0516 0077287 239.8486 119.4943 14.75570446899628
CUTE-1
1 27844U 03031E   19255.90695421 +.00000043 +00000-0 +38844-4 0  9998
2 27844 098.6852 262.8342 0010592 136.6897 223.5115 14.22193801840506
CUBESAT XI 4
1 27848U 03031J   19255.92367018 +.00000031 +00000-0 +33733-4 0  9991
2 27848 098.6928 263.3689 0010299 147.5361 212.6452 14.21787074840362
MOZHAYETS 4
1 27939U 03042A   19255.79663729  .00000096  00000-0  25747-4 0  9994
2 27939  98.0522  29.9922 0013584 150.2967 209.9014 14.66801555853161
CUBESAT XI 5
1 28895U 05043F   19255.91794029 +.00000095 +00000-0 +27099-4 0  9992
2 28895 097.9715 035.7526 0018159 080.7504 279.5751 14.63689410739869
CUTE-1.7+APD II
1 32785U 08021C   19255.74145043 +.00000156 +00000-0 +22440-4 0  9994
2 32785 097.5538 251.4143 0012626 344.6099 015.4732 14.88342020616418
DELFI C3
1 32789U 08021G   19255.20489981 +.00001113 +00000-0 +78056-4 0  9999
2 32789 097.4575 302.2620 0012145 185.1888 174.9216 15.07100752619740
SEEDS
1 32791U 08021J   19255.48057161 +.00000322 +00000-0 +38031-4 0  9993
2 32791 097.5305 257.2208 0012225 317.6160 042.4113 14.90865551616816
YUBELEINY
1 32953U 08025A   19255.84277031  .00000020  00000-0  75656-4 0  9996
2 32953  82.4983  91.1880 0018898 303.6112  56.3158 12.43091048513015
PRISM (HITOMI)
1 33493U 09002B   19255.83877697 -.00000178 +00000-0 -99223-5 0  9998
2 33493 098.1202 180.0592 0013779 258.7004 101.2668 14.96725461578025
KKS-1 (KISEKI)
1 33499U 09002H   19255.86952387 +.00000057 +00000-0 +16482-4 0  9996
2 33499 098.3450 097.3060 0008017 296.4737 063.5649 14.75460908571503
SWISSCUBE
1 35932U 09051B   19255.41259435 +.00000091 +00000-0 +31719-4 0  9997
2 35932 098.5963 063.9366 0006458 261.3454 098.7011 14.56307604529216
BEESAT
1 35933U 09051C   19255.41040744 +.00000071 +00000-0 +27072-4 0  9994
2 35933 098.5984 065.7296 0004655 277.4661 082.6007 14.56393852529281
ITUPSAT 1
1 35935U 09051E   19255.72381014 +.00000046 +00000-0 +21845-4 0  9992
2 35935 098.6094 066.2840 0006962 272.9848 087.0552 14.55550609529128
XIWANG-1 (HOPE-1)
1 36122U 09072B   19255.69700806 -.00000048 +00000-0 -14876-4 0  9994
2 36122 100.0762 254.0427 0007808 144.4330 215.7306 13.16350906468194
TISAT 1
1 36799U 10035E   19255.91144636 +.00000413 +00000-0 +47691-4 0  9998
2 36799 098.1668 050.9812 0012764 157.6927 202.4847 14.91151683497417
JUGNU
1 37839U 11058B   19255.14832231  .00000301  00000-0  18681-4 0  9993
2 37839  19.9603 176.5551 0019008 188.7395 308.2566 14.12658104409352
SRMSAT
1 37841U 11058D   19255.32095304 +.00000307 +00000-0 +23413-4 0  9993
2 37841 019.9711 234.0576 0011999 058.0436 083.0366 14.10638605408704
M-CUBED/EXP-1 PRIME
1 37855U 11061F   19255.79748792 +.00000587 +00000-0 +37392-4 0  9990
2 37855 101.7109 195.5922 0173035 181.4628 178.6101 15.05570244429261
HORYU 2
1 38340U 12025D   19255.75390679 +.00000121 +00000-0 +25750-4 0  9993
2 38340 098.3224 296.8958 0010994 203.8857 156.1842 14.75746583383440
STRAND 1
1 39090U 13009E   19255.75346017 +.00000010 +00000-0 +18530-4 0  9991
2 39090 098.4810 100.2390 0009951 038.9005 321.2895 14.35096109342712
SOMP
1 39134U 13015E   19255.86634563 +.00000614 +00000-0 +37246-4 0  9990
2 39134 064.8620 101.2188 0035656 289.4326 070.2950 15.20306899353319
BEESAT 3
1 39135U 13015F   19255.87596827 +.00000489 +00000-0 +33953-4 0  9993
2 39135 064.8682 120.7081 0032687 300.6556 059.1349 15.17590137352939
BEESAT 2
1 39136U 13015G   19255.74800940 +.00000634 +00000-0 +41747-4 0  9996
2 39136 064.8683 125.1885 0024408 304.4300 055.4519 15.17008306352832
CUBEBUG 1
1 39153U 13018D   19255.79534463  .00000128  00000-0  23698-4 0  9990
2 39153  97.9807 353.4471 0015548 280.2302  79.7157 14.80592341344554
ZACUBE
1 39417U 13066B   19255.90857834 +.00000151 +00000-0 +25226-4 0  9994
2 39417 097.5628 264.5658 0060423 110.8075 249.9625 14.81145434313803
TRITON 1
1 39427U 13066M   19255.89193807 +.00000143 +00000-0 +31149-4 0  9998
2 39427 097.6855 227.9849 0112333 249.3031 109.6104 14.67876396310791
GOMX 1
1 39430U 13066Q   19255.81359959  .00000191  00000-0  43799-4 0  9993
2 39430  97.7533 206.7261 0151191 343.2296  16.3936 14.59282318309166
HUMSAT D
1 39433U 13066T   19255.71381285 +.00000157 +00000-0 +20613-4 0  9994
2 39433 097.5464 299.6707 0031072 016.7122 343.5114 14.92244677314725
CUBEBUG 2
1 39440U 13066AA  19255.92260134 +.00000140 +00000-0 +26399-4 0  9993
2 39440 097.6070 249.2894 0080576 163.7942 196.5874 14.75883025311498
FUNCUBE 1
1 39444U 13066AE  19255.92892038 +.00000192 +00000-0 +29825-4 0  9995
2 39444 097.5603 266.6130 0059607 104.3879 256.3961 14.81970603312118
UWE-3
1 39446U 13066AG  19255.91447959 +.00000134 +00000-0 +24327-4 0  9992
2 39446 097.5840 256.3937 0071041 137.7442 222.9275 14.78417967311410
SPROUT
1 39770U 14029E   19255.87656448  .00000697  00000-0  83075-4 0  9991
2 39770  97.8864 358.6276 0009017 156.0247 204.1400 14.87416891287646
UNISAT 6
1 40012U 14033C   19255.48146582 +.00000131 +00000-0 +26953-4 0  9992
2 40012 097.7456 118.3486 0058171 179.6705 180.4553 14.74004274281320
DUCHIFAT 1
1 40021U 14033M   19255.80104511  .00000376  00000-0  44192-4 0  9990
2 40021  97.9227 180.6786 0014017 122.1223 238.1357 14.90676929284373
QB50P1
1 40025U 14033R   19255.71911941 +.00000213 +00000-0 +28639-4 0  9995
2 40025 097.9029 175.2565 0013403 131.7150 228.5215 14.88978627283614
CHUBUSAT 1
1 40300U 14070C   19255.79035978  .00000481  00000-0  23838-4 0  9990
2 40300  97.3211 327.7733 0020870 110.5211  37.1039 15.22162210269116
NUDT-PHONESAT
1 40900U 15049B   19255.91554367 +.00001621 +00000-0 +71834-4 0  9991
2 40900 097.4374 264.4134 0011359 239.5823 208.0732 15.23019568220785
ZDPS 2A
1 40901U 15049C   19255.91022492 +.00000521 +00000-0 +29084-4 0  9999
2 40901 097.4612 260.4953 0011937 263.2362 184.3224 15.17821878220319
ZDPS 2B
1 40902U 15049D   19255.81436417  .00000912  00000-0  48582-4 0  9993
2 40902  97.4564 257.8287 0011861 260.4915 192.8349 15.17671533220273
XW-2A
1 40903U 15049E   19255.76770883  .00001601  00000-0  39400-4 0  9991
2 40903  97.3309 298.9924 0012961 187.1333 279.4504 15.42072204223518
KAITUO 1A
1 40904U 15049F   19255.77380914  .00000250  00000-0  16740-4 0  9996
2 40904  97.4697 256.3201 0013112 271.0400 188.3502 15.15423402220033
OBJECT G
1 40905U 15049G   19255.78057456  .00000372  00000-0  23873-4 0  9990
2 40905  97.4745 253.7898 0014090 264.5878 181.0599 15.14339087219907
XW-2C
1 40906U 15049H   19255.81897409  .00000361  00000-0  22404-4 0  9992
2 40906  97.4703 256.4829 0013177 261.3709 176.6535 15.15743804220043
XW-2D
1 40907U 15049J   19255.78720951  .00000632  00000-0  36383-4 0  9998
2 40907  97.4684 256.1326 0012647 257.1829 188.5427 15.15939372220058
LILACSAT 2
1 40908U 15049K   19255.78711877  .00000399  00000-0  25649-4 0  9999
2 40908  97.4817 254.8715 0014221 265.2670 180.1319 15.13845264219834
XW-2F
1 40910U 15049M   19255.73329036  .00000918  00000-0  49211-4 0  9997
2 40910  97.4649 258.2041 0013098 249.5489 197.3471 15.17408283220060
XW-2B
1 40911U 15049N   19255.82243537  .00000350  00000-0  21744-4 0  9990
2 40911  97.4704 256.8299 0012536 259.1405 178.7979 15.15865632219958
KAITUO 1B
1 40912U 15049P   19255.88869194  .00000791  00000-0  40189-4 0  9993
2 40912  97.4511 262.1318 0013552 228.5984 175.0855 15.19732325220409
TIANWANG 1C (TW-1C)
1 40926U 15051B   19255.74113648  .00012255  00000-0  16957-3 0  9995
2 40926  97.1277 301.8455 0009149  60.7949  34.6761 15.57207952223546
TIANWANG 1B (TW-1B)
1 40927U 15051C   19255.78842405  .00010717  00000-0  15793-3 0  9998
2 40927  97.1315 301.0896 0009520  68.0351  23.3994 15.55527881223392
